{"data":{"norad_id":68237,"epoch":"2026-09-19T22:52:45.298848Z","epoch_age_seconds":99042,"freshness":"FRESH","line1":"1 68237U 26054F   26262.95330207  .00046786  00000+0  13870-2 0  9991","line2":"2 68237  53.1583 104.5992 0000861  38.5973 321.5091 15.34405752 28875","mean_motion":15.34405752,"eccentricity":8.61e-5,"inclination_deg":53.1583,"raan_deg":104.5992,"arg_perigee_deg":38.5973,"mean_anomaly_deg":321.5091,"bstar":0.001387,"rev_number":2887,"period_min":93.847406275886,"perigee_km":462.09714923163,"apogee_km":463.27513897704,"semimajor_km":6840.8231441043,"source":"CELESTRAK","updated_at":"2026-09-20T09:00:43.840034Z"}}